AirNav   TITAN Aviation Fuels
 
 1267 users online  

M38 Hazel Green Airport
Hazel Green, Alabama, USA

GOING TO HAZEL GREEN?


FAA INFORMATION EFFECTIVE 04 NOVEMBER 2021

Location

FAA Identifier: M38
Lat/Long: 34-54-58.0750N 086-38-49.3650W
34-54.967917N 086-38.822750W
34.9161319,-86.6470458
(estimated)
Elevation: 814 ft. / 248 m (estimated)
Variation: 00W (1985)
From city: 4 miles W of HAZEL GREEN, AL
Time zone: UTC -5 (UTC -6 during Standard Time)
Zip code: 35773

Airport Operations

Airport use: Open to the public
Activation date: 01/1966
Control tower: no
ARTCC: MEMPHIS CENTER
FSS: ANNISTON FLIGHT SERVICE STATION
NOTAMs facility: ANB (NOTAM-D service available)
Attendance: TUE-SAT 0800-1700
Wind indicator: yes
Segmented circle: no
Lights: ACTVT LIRL RWY 07/25 - CTAF.
Beacon: white-green (lighted land airport)
Operates sunset to sunrise.

Airport Communications

CTAF/UNICOM: 122.8
HUNTSVILLE APPROACH: 125.6
HUNTSVILLE DEPARTURE: 125.6
WX AWOS-3PT at MDQ (6 nm SE): 120.000 (256-829-1242)
WX AWOS-3 at FYM (10 nm NE): 135.275 (931-433-5916)
WX ASOS at HSV (18 nm S): 121.25 (256-772-8074)
  • APCH/DEP SVC PRVDD BY MEMPHIS ARTCC ON FREQS 120.8/307.0 (HUNTSVILLE RCAG) WHEN HUNTSVILLE APCH CTL CLSD.

Nearby radio navigation aids

VOR radial/distance  VOR name  Freq  Var
RQZr353/7.2ROCKET VORTAC112.2002E

Airport Services

Fuel available: 100LL
Parking: tiedowns
Bottled oxygen: NONE
Bulk oxygen: NONE

Runway Information

Runway 7/25

Dimensions: 2670 x 40 ft. / 814 x 12 m
Surface: asphalt, in good condition
Weight bearing capacity: 
Single wheel: 10.0
Runway edge lights: low intensity
RUNWAY 7  RUNWAY 25
Latitude: 34-54.901000N34-55.034833N
Longitude: 086-39.077167W086-38.568333W
Elevation: 814.0 ft.814.0 ft.
Traffic pattern: leftleft
Displaced threshold: no545 ft.
Markings: basic, in good conditionbasic, in good condition
Obstructions: 65 ft. tree, 1433 ft. from runway, 139 ft. left of centerline, 18:1 slope to clear56 ft. trees, 200 ft. from runway, 75 ft. left of centerline
+77 FT TREES 167 FT TO 200 FT FM RWY THR, 75 FT LEFT OF CNTRLN.

Airport Ownership and Management from official FAA records

Ownership: Privately-owned
Owner: HAZEL GREEN FLYERS INC
342 OPP REYNOLDS RD
HAZEL GREEN, AL 35750
Phone 256-684-7424
Manager: MICHAEL BEDARD
386 OPP REYNOLDS ROAD
HAZEL GREEN, AL 35750
Phone 256-684-7424
BEDARD.MICHAEL@GMAIL.COM

Airport Operational Statistics

Aircraft based on the field: 20
Single engine airplanes: 18
Gliders airplanes: 2
    
Aircraft operations: avg 31/day *
71% transient general aviation
29% local general aviation
* for 12-month period ending 07 July 2010

Additional Remarks

TWY LGTS FOR TWY TURNOFF ONLY.
FOR CD CTC HUNTSVILLE APCH AT 256-542-2070, WHEN APCH CLSD CTC MEMPHIS ARTCC AT 901-368-8453/8449.
FUEL FOR HGF, INC MEMBERS ONLY.

Instrument Procedures

There are no published instrument procedures at M38.

Some nearby airports with instrument procedures:

KMDQ - Huntsville Executive Airport / Tom Sharp Jr Field (6 nm SE)
KFYM - Fayetteville Municipal Airport (10 nm NE)
KHUA - Redstone Army Airfield (14 nm S)
KHSV - Huntsville International Airport-Carl T Jones Field (18 nm S)
KDCU - Pryor Field Regional Airport (22 nm SW)
 
Loc | Ops | Rwys | IFR | FBO | Links
Com | Nav | Svcs | Stats | Notes
Area around M38 (Hazel Green Airport)
 
Road maps at: MapQuest Bing Google
 
Aerial photo
WARNING: Photo may not be current or correct
Aerial photo of M38 (Hazel Green Airport)
Photo taken 07-May-2011
looking northwest.

Do you have a better or more recent aerial photo of Hazel Green Airport that you would like to share? If so, please send us your photo.

 
Sectional chart

 
Airport distance calculator
Flying to Hazel Green Airport? Find the distance to fly.

From to M38

Sunrise and sunset
Times for 30-Nov-2021
 Local
(UTC-6)
 Zulu
(UTC)
Morning civil twilight06:0912:09
Sunrise06:3612:36
Sunset16:3422:34
Evening civil twilight17:0223:02

Current date and time
Zulu (UTC)  30-Nov-2021 23:58:32
Local (UTC-6)  30-Nov-2021 17:58:32
 
METAR
KMDQ 
6nm SE 
302335Z AUTO 00000KT 10SM CLR 10/05 A3015 RMK A02 T01020045
KFYM 
10nm NE 
302210Z AUTO 23005KT 10SM CLR 16/05 A3015 RMK A01
KHUA 
14nm S 
302258Z AUTO 00000KT 7SM CLR 14/06 A3013 RMK AO2 SLP206 T01430055
KHSV 
17nm SW 
302353Z 00000KT 10SM CLR 12/04 A3015 RMK AO2 SLP209 T01170044 10200 20111 53008
TAF
KHUA 
14nm S 
302000Z 3020/0202 VRB06KT 9999 SKC QNH3011INS BECMG 0119/0120 21010G15KT 9999 FEW200 520053 QNH3010INS TX18/0120Z TN04/0113Z LAST NO AMDS AFT 0100 NEXT 0112
KHSV 
17nm SW 
301720Z 3018/0118 25006KT P6SM SKC
NOTAMs
Click for the latest NOTAMs
NOTAMs are issued by the DoD/FAA and will open in a separate window not controlled by AirNav.

 

 
 

Aviation Businesses, Services, and Facilities

  
 Business Name 
 
 Contact 
 
 Services / Description 
 
Distance
 
Comments
  
Hazel Green Flyers 256-534-2801
no information available

If you are affiliated with Hazel Green Flyers and would like to show here your services, contact info, web link, logo, and more, click here
on airport  
   write
 

Would you like to see your business listed on this page?

 If your business provides an interesting product or service to pilots, flight crews, aircraft, or users of the Hazel Green Airport, you should consider listing it here.  To start the listing process, click on the button below
 
Add a business
 

Other Pages about Hazel Green Airport

Update a link
 
Copyright © AirNav, LLC. All rights reserved. Privacy Policy  Contact